Location: Chevoux
(46.3801°N, 4.9476°E)
Time: 03:38:59
(UTC+00:00)

Envisat - Pass Details

Date: 06 December 2021
Orbit: 764 x 766 km, 98.2° (Epoch: 16 January)

Event Time Altitude Azimuth Distance (km) Brightness Sun altitude
Rises 04:16:57 0° 18° (NNE) 3,244 6.4 -28.7°
Reaches altitude 10° 04:19:22 10° 24° (NNE) 2,313 5.7 -28.3°
Maximum altitude 04:24:17 47° 99° (E) 1,005 3.9 -27.4°
Drops below altitude 10° 04:29:09 10° 173° (S) 2,295 5.6 -26.6°
Sets 04:31:31 0° 179° (S) 3,216 6.3 -26.2°
